Location: Peebles
(55.6412°N, 3.1714°W)
Time: 21:46:59
(UTC+00:00)

FENGYUN 1C DEB - Pass Details

Date: 06 February 2023
Orbit: 707 x 862 km, 98.5° (Epoch: 07 November)

Event Time Altitude Azimuth Distance (km) Brightness Sun altitude
Rises 19:38:21 0° 171° (S) 3,386 ? -22.8°
Reaches altitude 10° 19:40:43 10° 174° (S) 2,464 ? -23.2°
Maximum altitude 19:46:11 66° 257° (WSW) 927 ? -23.9°
Drops below altitude 10° 19:51:43 10° 340° (NNW) 2,484 ? -24.7°
Sets 19:54:07 0° 343° (NNW) 3,415 ? -25.0°
